OPS 4682 DEB, 38443

Orbit data source: Space-Track

OPS 4682 DEB, 38443 is space debris in LEO originally from a launch on Sat, 03 Apr 1965 UTC launched from the Air Force Western Test Range (AFWTR). Debris objects in space refer to the collection of defunct objects orbiting the Earth. Examples of debris include non-operational satellites, rocket bodies, and fragments generated from explosions, collisions, or faulty payload assembly.

Loading next visibility...
Identifier
38443, 1965-027EY
Orbit
LEO
Country
Flag of USUS
Related business
Manufacturer
Unknown
Mission
Spacecraft
Bus & Motor
Unknown
Mass
Unknown
Launch date (UTC)
1965-04-03 (61 years ago)
Launch vehicle
Unknown
Launch site
Air Force Western Test Range (AFWTR)
Object type
Payload
Rocket body
Debris
Shape & HBR
Unknown shape, 0.1 m
Radar Cross Section
Small (<0.1 m²)

Expand to show TLE details & history
Last TLE update: 3 days ago

TLE from 3 days ago
0 OPS 4682 DEB
1 38443U 65027EY  25290.61367733 -.00000157  00000-0 -53937-3 0  9991
2 38443  90.2388 357.8284 0032253 163.0382 197.1826 13.00745667520289
Epoch: 2025-10-17T14:43Z
TLE epoch observation values (Epoch: 2025-10-17T14:43:41.721Z)
Latitude
-0.00006°
Longitude
110.54803°
Altitude
1,285.596 km
Speed
7.202 km/s
True Right ascension
23h 51m 18s
True Declination
0° 00' 00"
Sunlit
Object was in full shadow at epoch
Visualization orbit readout
Latitude
Unknown
Longitude
Unknown
Altitude
Unknown
Speed
Unknown
Apparent Right ascension
Unknown
Apparent Declination
Unknown
Sunlit
N/A
Visualization observer readout
Local Sidereal Time
11:40:53
Azimuth
Unknown
Elevation
Unknown
Doppler factor
Unknown
Orbital elements
Apogee altitude
1,280.916 km
Perigee altitude
1,231.669 km
Semi-major axis
7,634.429 km
Eccentricity
0.00323
Inclination
90.2388°
RAAN
357.8284°
Arg. of periapsis
163.0382°
True anomaly
197.07383°
Mean anomaly
197.1826°
Eccentric anomaly
197.12818°
Mean motion
3.25371 °/min
Orbital period
110.64 mins
BSTAR
-0.00053937
Loading maneuver chart data...
Computing Atmospheric mass density...
Loading historical data...
Loading historical data...
Loading historical data...
Loading historical data...
Loading historical data...
Loading historical data...
Loading historical data...

Documentation

Showing up to 5 results
|